Regional Weather Roundup
Issued by NWS Jackson, KY

Home | Current Version | Previous Version | Graphics & Text | Print | Product List | Glossary Off
Versions: 1 2 3 4 5 6 7 8 9 10 11 12 13 14 15 16 17 18 19 20 21 22 23 24 25 26 27 28 29 30 31 32 33 34 35 36 37 38 39 40 41 42 43 44 45 46 47 48 49 50

000
ASUS43 KJKL 181619
RWRJKL

EAST KENTUCKY HOURLY WEATHER ROUNDUP
NATIONAL WEATHER SERVICE JACKSON KY
1200 PM EDT FRI APR 18 2014

NOTE: "FAIR" INDICATES FEW OR NO CLOUDS BELOW 12,000 FEET WITH
NO SIGNIFICANT WEATHER AND/OR OBSTRUCTIONS TO VISIBILITY.

* THESE REPORTS ARE NOT UNDER NWS QUALITY CONTROL AND MAY NOT
  REPORT WEATHER SUCH AS PRECIPITATION AND FOG.

KYZ079-080-083-085-087-088-110-112-115-119-120-181700
...EASTERN KENTUCKY...

CITY           SKY/WX    TMP DP  RH WIND       PRES   REMARKS
JACKSON          N/A     65  36  34 VRB5      30.33F
LONDON         CLOUDY    60  35  39 S5        30.34S
SOMERSET*      PTSUNNY   61  36  39 SW3       30.35S
MONTICELLO*    CLOUDY    69  48  46 CALM      30.35S
WILLIAMSBURG*    N/A    N/A N/A N/A SE5         N/A
MIDDLESBORO*   CLOUDY    59  32  37 CALM      30.36F
HARLAN APT*    CLOUDY    59  28  31 E5        30.35S
BLACK MTN*       N/A     52  32  46 SW2         N/A
PIKEVILLE APT* PTSUNNY   61  34  36 S3        30.34S
BIG SANDY*     PTSUNNY   64  37  37 W5        30.33F
ASHLAND*       SUNNY     64  37  36 CALM      30.29F
MOREHEAD APT*  SUNNY     63  39  42 NW3       30.34S
$$

KYZ035-036-041-042-044-050-067-078-099-181700
...CENTRAL KENTUCKY...

CITY           SKY/WX    TMP DP  RH WIND       PRES   REMARKS
MT STERLING*   PTSUNNY   63  43  48 W8        30.34S
FLEMING/MASON* SUNNY     63  41  45 CALM      30.32S
DANVILLE*      CLOUDY    63  41  45 W9        30.33F
LEXINGTON      PTSUNNY   64  44  48 W7        30.32S
FRANKFORT      PTSUNNY   65  38  36 SW10      30.30F
$$

KYZ091>093-OHZ055-061-077-WVZ005-015-034-035-042-181700
...SOUTHERN OHIO/WEST VIRGINIA...

CITY           SKY/WX    TMP DP  RH WIND       PRES   REMARKS
COVINGTON      PTSUNNY   64  37  36 S3        30.30S
COLUMBUS       PTSUNNY   63  32  31 CALM      30.29F
DAYTON         PTSUNNY   63  37  38 CALM      30.30S
WILMINGTON     PTSUNNY   63  37  38 SW3       30.30S
HUNTINGTON     CLOUDY    64  33  31 SW8       30.31S
CHARLESTON     PTSUNNY   67  30  25 W6        30.30F
PINEVILLE*     CLOUDY    62  33  34 MISG      30.39F
BECKLEY        CLOUDY    58  27  30 CALM      30.34F
BLUEFIELD      CLOUDY    59  26  28 VRB6      30.36F
$$

VAZ002-007-008-TNZ017-027-036-066-071-181700
...SOUTHWEST VIRGINIA/EAST TENNESSEE...

CITY           SKY/WX    TMP DP  RH WIND       PRES   REMARKS
WISE*          CLOUDY    59  30  33 S3        30.36F
ABINGDON*      CLOUDY    53  32  43 E5        30.37S
BRISTOL        CLOUDY    54  30  40 N5        30.37S
KNOXVILLE      CLOUDY    56  37  49 N7        30.33F
OAK RIDGE      CLOUDY    57  35  43 E3        30.36S
CROSSVILLE     CLOUDY    57  34  41 VRB5      30.33F
NASHVILLE      CLOUDY    62  41  46 SE3       30.31S
$$

...KEY TO REMARKS...
VSB - VISIBILITY IN MILES
WCI - WIND CHILL INDEX
HX  - HEAT INDEX

$$



USA.gov is the U.S. government's official web portal to all federal, state and local government web resources and services.